Tracking 29510 objects as of 16-Sep-2024
HD Live streaming from Space Station
objects crossing your sky now

EXPLORER 30

Track EXPLORER 30 now!
10-day predictions
EXPLORER 30 is classified as:


NORAD ID: 1738
Int'l Code: 1965-093A
Perigee: 667.0 km
Apogee: 856.6 km
Inclination: 59.7 °
Period: 99.9 minutes
Semi major axis: 7132 km
RCS: 0.3725 m2 (medium)
Launch date: November 19, 1965
Source: United States (US)
Launch site: WALLOPS ISLAND (WLPIS)
Your satellite tracking list
Your tracking list is empty




NASA's NSSDC Master Catalog

Two Line Element Set (TLE):
1 01738U 65093A   24260.36962075  .00000669  00000-0  22984-3 0  9993
2 01738  59.7063 257.3612 0132918 166.7726 193.6854 14.41171240 64287
Source of the keplerian elements: AFSPC